Jackson, MI

5:20 PM EST on November 17, 2019 (GMT -0500)
Jackson County-Reynolds

Weather History for KJXN - May, 2019

Change the Weather History Date:

Sunday, May 26, 2019

  Actual Average Record
Temperature  
Mean Temperature 62 °F 61 °F  
Max Temperature 71 °F 72 °F 89 °F (1978)
Min Temperature 53 °F 49 °F 34 °F (1958)
Degree Days  
Heating Degree Days 3 6  
Month to date heating degree days 236 233  
Since 1 July heating degree days 6633 6579  
Cooling Degree Days 0 2  
Month to date cooling degree days 8 22  
Year to date cooling degree days 8 28  
Growing Degree Days 13 (Base 50)    
Moisture  
Dew Point 62 °F    
Average Humidity 89    
Maximum Humidity 100    
Minimum Humidity 78    
Precipitation  
Precipitation 0.20 in 0.11 in 1.39 in (1968)
Month to date precipitation 3.12 2.76  
Year to date precipitation 11.36 10.05  
Sea Level Pressure  
Sea Level Pressure 30.03 in    
Wind  
Wind Speed 2 mph (NNW)    
Max Wind Speed 9 mph    
Max Gust Speed 13 mph    
Visibility 6 miles    
Events Fog , Rain    
T = Trace of Precipitation, MM = Missing Value Source: NWS Daily Summary

Daily Weather History Graph

Daily Weather History Graph

Search for Another Location

Airport or City:

Astronomy

May. 26, 2019 Rise Set
Actual Time 6:07 AM EDT 9:02 PM EDT
Civil Twilight 5:34 AM EDT 9:36 PM EDT
Nautical Twilight 4:52 AM EDT 10:18 PM EDT
Astronomical Twilight 4:03 AM EDT 11:07 PM EDT
Moon 2:32 AM EDT (5/26) 1:07 PM EDT (5/26)
Length of Visible Light 16h 01m
Length of Day
14h 55m
Waning Gibbous, 50% of the Moon is Illuminated
May 26
Waning Gibbous
May 26
Last Quarter
Jun 3
New
Jun 10
First Quarter
Jun 17
Full

Hourly Weather History & Observations

Time (EDT) Temp. Dew Point Humidity Pressure Visibility Wind Dir Wind Speed Gust Speed Precip Events Conditions
12:56 AM 63.0 °F 62.1 °F 97% 29.94 in 10.0 mi SSW 5.8 mph - N/A   Clear
1:56 AM 62.1 °F 61.0 °F 96% 29.95 in 10.0 mi West 5.8 mph - N/A   Partly Cloudy
2:56 AM 64.0 °F 62.1 °F 93% 29.95 in 10.0 mi Calm Calm - N/A   Clear
3:56 AM 62.1 °F 61.0 °F 96% 29.94 in 10.0 mi Calm Calm - N/A   Clear
4:56 AM 61.0 °F 61.0 °F 100% 29.94 in 8.0 mi SW 4.6 mph - N/A   Clear
5:56 AM 64.0 °F 63.0 °F 96% 29.96 in 10.0 mi Calm Calm - N/A   Clear
6:56 AM 64.0 °F 63.0 °F 96% 29.97 in 10.0 mi Calm Calm - N/A   Clear
7:56 AM 66.0 °F 64.9 °F 96% 30.00 in 10.0 mi Calm Calm - N/A   Overcast
8:56 AM 68.0 °F 64.0 °F 87% 30.01 in 10.0 mi Variable 3.5 mph - N/A   Partly Cloudy
9:56 AM 69.1 °F 63.0 °F 81% 30.00 in 10.0 mi Calm Calm - N/A   Mostly Cloudy
11:33 AM 71.1 °F 64.0 °F 78% 30.02 in 10.0 mi Variable 3.5 mph - N/A   Overcast
11:56 AM 70.0 °F 64.0 °F 81% 30.01 in 6.0 mi Calm Calm - 0.01 in Rain Light Rain
12:56 PM 69.1 °F 64.9 °F 87% 30.03 in 10.0 mi NNW 5.8 mph - 0.02 in   Overcast
1:10 PM 68.0 °F 66.0 °F 93% 30.04 in 8.0 mi NNW 5.8 mph - N/A   Overcast
1:21 PM 68.0 °F 66.0 °F 93% 30.04 in 8.0 mi North 5.8 mph - N/A   Overcast
1:56 PM 66.9 °F 64.9 °F 93% 30.03 in 5.0 mi NNE 8.1 mph - 0.01 in Rain Light Rain
2:13 PM 66.9 °F 64.9 °F 93% 30.03 in 5.0 mi NNE 5.8 mph - 0.02 in Rain Light Rain
2:56 PM 66.9 °F 64.9 °F 93% 30.03 in 8.0 mi Calm Calm - 0.03 in   Overcast
3:44 PM 66.9 °F 64.9 °F 93% 30.04 in 10.0 mi North 5.8 mph - 0.00 in Rain Light Rain
3:56 PM 66.0 °F 64.0 °F 93% 30.03 in 10.0 mi NNE 3.5 mph - 0.00 in   Overcast
4:06 PM 66.0 °F 64.0 °F 93% 30.04 in 2.5 mi Calm Calm - 0.02 in Rain Light Rain
4:08 PM 66.0 °F 64.0 °F 93% 30.04 in 1.0 mi Calm Calm - 0.07 in Rain Light Rain
4:15 PM 64.9 °F 64.0 °F 97% 30.05 in 0.5 mi West 4.6 mph - 0.13 in Fog , Rain Heavy Rain
4:19 PM 64.9 °F 64.0 °F 97% 30.04 in 1.0 mi WNW 3.5 mph - 0.13 in Rain Light Rain
4:22 PM 64.9 °F 64.0 °F 97% 30.04 in 3.0 mi NNW 5.8 mph - 0.13 in Rain Light Rain
4:57 PM 66.2 °F 62.6 °F 88% 30.04 in 10.0 mi NNW 6.9 mph - 0.13 in   Overcast
5:03 PM 68.0 °F 64.0 °F 87% 30.04 in 10.0 mi NNW 5.8 mph - 0.13 in   Overcast
5:56 PM 69.1 °F 62.1 °F 78% 30.03 in 10.0 mi North 5.8 mph - N/A   Mostly Cloudy
6:56 PM 66.9 °F 62.1 °F 84% 30.03 in 10.0 mi North 4.6 mph - N/A   Mostly Cloudy
7:56 PM 66.9 °F 62.1 °F 84% 30.04 in 10.0 mi NNE 4.6 mph - N/A   Partly Cloudy
8:56 PM 64.0 °F 60.1 °F 87% 30.04 in 10.0 mi Calm Calm - N/A   Clear
9:56 PM 61.0 °F 60.1 °F 97% 30.04 in 9.0 mi Calm Calm - N/A   Clear
10:22 PM 57.9 °F 57.9 °F 100% 30.05 in 1.2 mi Calm Calm - N/A   Clear
10:25 PM 57.0 °F 57.0 °F 100% 30.05 in 0.8 mi Calm Calm - N/A   Mist
10:44 PM 57.0 °F 57.0 °F 100% 30.06 in 1.2 mi Calm Calm - N/A   Partly Cloudy
10:52 PM 57.2 °F 57.2 °F 100% 30.06 in 3.0 mi Calm Calm - N/A   Partly Cloudy
10:56 PM 57.9 °F 57.9 °F 100% 30.06 in 5.0 mi Calm Calm - N/A   Clear
11:02 PM 57.9 °F 57.9 °F 100% 30.06 in 1.2 mi Calm Calm - N/A   Clear
11:11 PM 57.0 °F 57.0 °F 100% 30.07 in 0.5 mi Calm Calm - N/A Fog Fog
11:24 PM 57.0 °F 57.0 °F 100% 30.07 in 1.0 mi Calm Calm - N/A   Mist
11:31 PM 57.0 °F 57.0 °F 100% 30.08 in 1.0 mi Calm Calm - N/A   Clear
11:43 PM 55.0 °F 55.0 °F 100% 30.08 in 0.5 mi Calm Calm - N/A Fog Fog
11:52 PM 55.4 °F 55.4 °F 100% 30.08 in 1.0 mi Calm Calm - N/A   Clear
11:56 PM 55.0 °F 55.0 °F 100% 30.07 in 4.0 mi Calm Calm - N/A   Clear